Weather History for Richmond, KY

Change the Weather History Date:

Wednesday, May 8, 2013

  Actual Average (KLOZ) Record (KLOZ)
Temperature  
Mean Temperature 60 °F 63 °F  
Max Temperature 68 °F 75 °F 86 °F (1964)
Min Temperature 53 °F 51 °F 32 °F (1989)
Degree Days  
Heating Degree Days 4 4  
Month to date heating degree days 36  
Since 1 July heating degree days 4137  
Cooling Degree Days 0 2  
Month to date cooling degree days 11  
Year to date cooling degree days 37  
Growing Degree Days 10 (Base 50)    
Moisture  
Dew Point 56 °F    
Average Humidity 90    
Maximum Humidity 100    
Minimum Humidity 68    
Precipitation  
Precipitation 0.00 in 0.17 in 1.57 in (1972)
Month to date precipitation 1.28  
Year to date precipitation 16.63  
Sea Level Pressure  
Sea Level Pressure 29.99 in    
Wind  
Wind Speed 2 mph (WSW)    
Max Wind Speed 10 mph    
Max Gust Speed -    
Visibility 6 miles    
Events      
T = Trace of Precipitation, MM = Missing Value Source: NWS Daily Summary

Daily Weather History Graph

Daily Weather History Graph

Search for Another Location

Airport:

Trip Planner

Search our weather history database for the weather conditions in past years. The results will help you decide how hot, cold, wet, or windy it might be!

Date:

Astronomy

May. 08, 2013 Rise Set
Actual Time 6:34 AM EDT 8:34 PM EDT
Civil Twilight 6:05 AM EDT 9:02 PM EDT
Nautical Twilight 5:30 AM EDT 9:38 PM EDT
Astronomical Twilight 4:52 AM EDT 10:15 PM EDT
Moon 5:40 AM EDT (5/8) 7:32 PM EDT (5/8)
Length of Visible Light 14h 57m
Length of Day
14h 00m
Waning Crescent, 2% of the Moon is Illuminated
May 8
Waning Crescent
May 9
New
May 18
First Quarter
May 25
Full
May 31
Last Quarter

Hourly Weather History & Observations

Time (EDT) Temp. Dew Point Humidity Pressure Visibility Wind Dir Wind Speed Gust Speed Precip Events Conditions
12:15 AM 57.2 °F 55.4 °F 94% 29.96 in 7.0 mi West 3.5 mph - N/A   Overcast
12:35 AM 57.2 °F 55.4 °F 94% 29.96 in 10.0 mi WSW 3.5 mph - N/A   Overcast
1:15 AM 57.2 °F 55.4 °F 94% 29.95 in 10.0 mi Calm Calm - N/A   Overcast
1:35 AM 57.2 °F 55.4 °F 94% 29.95 in 7.0 mi Calm Calm - N/A   Mostly Cloudy
1:55 AM 57.2 °F 55.4 °F 94% 29.95 in 1.2 mi Calm Calm - N/A   Overcast
2:15 AM 57.2 °F 55.4 °F 94% 29.95 in 4.0 mi Calm Calm - N/A   Overcast
2:35 AM 57.2 °F 55.4 °F 94% 29.94 in 1.0 mi Calm Calm - N/A   Overcast
2:55 AM 55.4 °F 55.4 °F 100% 29.93 in 2.5 mi Calm Calm - N/A   Overcast
3:15 AM 55.4 °F 55.4 °F 100% 29.93 in 4.0 mi Calm Calm - N/A   Overcast
3:35 AM 55.4 °F 55.4 °F 100% 29.93 in 2.5 mi Calm Calm - N/A   Mostly Cloudy
3:55 AM 55.4 °F 55.4 °F 100% 29.93 in 1.2 mi Calm Calm - N/A   Overcast
4:15 AM 55.4 °F 53.6 °F 94% 29.92 in 0.2 mi Calm Calm - N/A   Overcast
4:35 AM 55.4 °F 53.6 °F 94% 29.93 in 0.2 mi Calm Calm - N/A   Overcast
4:55 AM 55.4 °F 53.6 °F 94% 29.93 in 0.2 mi Calm Calm - N/A   Overcast
5:15 AM 55.4 °F 53.6 °F 94% 29.94 in 0.2 mi Calm Calm - N/A   Overcast
5:35 AM 55.4 °F 53.6 °F 94% 29.94 in 0.2 mi Calm Calm - N/A   Overcast
6:15 AM 55.4 °F 53.6 °F 94% 29.94 in 0.2 mi Calm Calm - N/A   Overcast
6:35 AM 53.6 °F 53.6 °F 100% 29.95 in 0.2 mi Calm Calm - N/A   Overcast
6:55 AM 53.6 °F 51.8 °F 94% 29.96 in 0.2 mi Calm Calm - N/A   Overcast
7:15 AM 53.6 °F 51.8 °F 94% 29.96 in 0.2 mi Calm Calm - N/A   Overcast
7:35 AM 53.6 °F 51.8 °F 94% 29.97 in 0.2 mi Calm Calm - N/A   Overcast
7:55 AM 53.6 °F 51.8 °F 94% 29.98 in 0.2 mi Calm Calm - N/A   Overcast
8:15 AM 53.6 °F 53.6 °F 100% 29.99 in 0.2 mi Calm Calm - N/A   Overcast
8:35 AM 55.4 °F 53.6 °F 94% 30.00 in 0.2 mi NNW 3.5 mph - N/A   Overcast
8:55 AM 55.4 °F 53.6 °F 94% 30.00 in 0.2 mi Calm Calm - N/A   Overcast
9:15 AM 55.4 °F 55.4 °F 100% 30.01 in 0.2 mi Calm Calm - N/A   Overcast
9:35 AM 55.4 °F 55.4 °F 100% 30.01 in 0.2 mi West 3.5 mph - N/A   Overcast
9:55 AM 57.2 °F 55.4 °F 94% 30.01 in 0.2 mi West 4.6 mph - N/A   Overcast
10:15 AM 57.2 °F 55.4 °F 94% 30.01 in 3.0 mi Calm Calm - N/A   Overcast
10:35 AM 57.2 °F 57.2 °F 100% 30.02 in 4.0 mi West 4.6 mph - N/A   Overcast
10:55 AM 57.2 °F 57.2 °F 100% 30.02 in 7.0 mi Calm Calm - N/A   Overcast
11:15 AM 57.2 °F 55.4 °F 94% 30.02 in 10.0 mi West 6.9 mph - N/A   Overcast
11:35 AM 57.2 °F 57.2 °F 100% 30.03 in 10.0 mi West 6.9 mph - N/A   Overcast
11:55 AM 59.0 °F 57.2 °F 94% 30.03 in 10.0 mi West 5.8 mph - N/A   Overcast
12:15 PM 59.0 °F 59.0 °F 100% 30.03 in 10.0 mi West 4.6 mph - N/A   Mostly Cloudy
12:35 PM 60.8 °F 59.0 °F 94% 30.02 in 10.0 mi WNW 8.1 mph - N/A   Mostly Cloudy
12:55 PM 60.8 °F 59.0 °F 94% 30.02 in 10.0 mi West 6.9 mph - N/A   Overcast
1:15 PM 62.6 °F 59.0 °F 88% 30.01 in 10.0 mi West 6.9 mph - N/A   Mostly Cloudy
1:35 PM 66.2 °F 57.2 °F 73% 30.01 in 10.0 mi West 6.9 mph - N/A   Scattered Clouds
1:55 PM 66.2 °F 57.2 °F 73% 30.01 in 10.0 mi WNW 8.1 mph - N/A   Mostly Cloudy
2:15 PM 68.0 °F 57.2 °F 68% 30.01 in 10.0 mi West 6.9 mph - N/A   Mostly Cloudy
2:35 PM 66.2 °F 55.4 °F 68% 30.01 in 10.0 mi WNW 10.4 mph - N/A   Overcast
2:55 PM 66.2 °F 55.4 °F 68% 30.01 in 10.0 mi NW 5.8 mph - N/A   Overcast
3:15 PM 64.4 °F 57.2 °F 77% 30.01 in 10.0 mi West 3.5 mph - N/A   Overcast
3:35 PM 64.4 °F 59.0 °F 83% 30.00 in 10.0 mi SW 3.5 mph - N/A   Overcast
3:55 PM 64.4 °F 59.0 °F 83% 30.01 in 10.0 mi West 4.6 mph - N/A   Overcast
4:35 PM 62.6 °F 57.2 °F 82% 29.99 in 10.0 mi WSW 4.6 mph - N/A   Overcast
4:55 PM 62.6 °F 57.2 °F 82% 29.98 in 10.0 mi SW 6.9 mph - N/A   Overcast
5:15 PM 66.2 °F 59.0 °F 78% 29.99 in 10.0 mi WSW 6.9 mph - N/A   Scattered Clouds
5:35 PM 64.4 °F 57.2 °F 77% 30.00 in 10.0 mi Calm Calm - N/A   Overcast
5:55 PM 66.2 °F 57.2 °F 73% 29.99 in 10.0 mi South 3.5 mph - N/A   Overcast
6:15 PM 66.2 °F 57.2 °F 73% 30.00 in 10.0 mi Calm Calm - N/A   Overcast
6:35 PM 62.6 °F 51.8 °F 68% 30.03 in 10.0 mi Calm Calm - N/A   Overcast
6:55 PM 59.0 °F 55.4 °F 88% 30.02 in 10.0 mi East 4.6 mph - N/A   Overcast
7:15 PM 59.0 °F 57.2 °F 94% 30.03 in 7.0 mi Calm Calm - N/A   Overcast
7:35 PM 59.0 °F 57.2 °F 94% 30.03 in 10.0 mi SSW 6.9 mph - N/A   Overcast
7:55 PM 59.0 °F 55.4 °F 88% 30.02 in 10.0 mi SSW 6.9 mph - N/A   Scattered Clouds
8:15 PM 59.0 °F 55.4 °F 88% 30.03 in 10.0 mi South 3.5 mph - N/A   Scattered Clouds
8:35 PM 59.0 °F 55.4 °F 88% 30.03 in 10.0 mi SSE 4.6 mph - N/A   Overcast
8:55 PM 59.0 °F 55.4 °F 88% 30.03 in 10.0 mi SE 3.5 mph - N/A   Overcast
9:15 PM 57.2 °F 55.4 °F 94% 30.03 in 10.0 mi Calm Calm - N/A   Overcast
9:35 PM 57.2 °F 55.4 °F 94% 30.04 in 10.0 mi Calm Calm - N/A   Mostly Cloudy
9:55 PM 57.2 °F 55.4 °F 94% 30.04 in 10.0 mi Calm Calm - N/A   Mostly Cloudy
10:15 PM 57.2 °F 55.4 °F 94% 30.05 in 7.0 mi Calm Calm - N/A   Mostly Cloudy
10:35 PM 57.2 °F 55.4 °F 94% 30.05 in 7.0 mi Calm Calm - N/A   Mostly Cloudy
11:15 PM 59.0 °F 55.4 °F 88% 30.05 in 10.0 mi SSW 3.5 mph - N/A   Overcast
11:35 PM 57.2 °F 55.4 °F 94% 30.05 in 10.0 mi SW 3.5 mph - N/A   Overcast